(300730) = 2007 VF142

Discovered at Kitt Peak on 2007-11-04 by Spacewatch.

Orbit

Orbit type: Main Belt

Note: WebGL enabled browser required.

epoch2024-03-31.0
epoch JD2460400.5
perihelion date2022-11-09.96097
perihelion JD2459893.46097
argument of perihelion (°)296.07606
ascending node (°)154.90767
inclination (°)2.54666
eccentricity0.0304734
perihelion distance (AU)2.7791448
Tisserand w.r.t. Jupiter3.3
ΔV w.r.t. Earth (km/sec)10.4
semimajor axis (AU)2.8664966
mean anomaly (°)102.97175
mean daily motion (°/day)0.20308450
aphelion distance (AU)2.954
period (years)4.85
P-vector [x]-0.01754472
P-vector [y]0.93248511
P-vector [z]0.36078208
Q-vector [x]-0.99966851
Q-vector [y]-0.02316013
Q-vector [z]0.01124660
absolute magnitude16.47
phase slope0.15
uncertainty0
referenceMPEC 2024-F28
observations used240
oppositions16
arc length (days)11155
first opposition used1992
last opposition used2023
residual rms (arc-secs)0.72
perturbers coarse indicatorM-v
perturbers precise indicator003Ek
first observation date used1992-10-01.0
last observation date used2023-04-17.0
computer nameMPCLINUX
JD of orbit computation2456731.619827
perihelion JD uncertainty (days)5.0037E-04
argument of perihelion uncertainty (°)1.5397E-04
ascending node uncertainty (°)1.1383E-04
inclination uncertainty (°)5.6525E-06
eccentricity uncertainty 4.6545E-08
perihelion distance uncertainty (AU)1.2757E-07
Minimum Orbit Intersection Distances (in AU)
for orbit epoch: 2460400.5, reference: E2024-G95
Mercury2.46773
Venus2.06078
Earth1.79737
Mars1.15205
Jupiter2.08987
Saturn6.26413
Uranus15.5941
Neptune26.9968

Observations

240 total observations over interval: 1992 10 01.38617 – 2023 04 17.145154
These data are available for download (format description).

Date (UT) J2000 RA J2000 Dec Magn Location Ref
1992 10 01.38617 01 10 03.86 +04 46 07.9 20.6 V 691 – Steward Observatory, Kitt Peak-Spacewatch MPS 229949
1992 10 01.41497 01 10 02.52 +04 45 58.3   691 – Steward Observatory, Kitt Peak-Spacewatch MPS 229949
1992 10 01.44340 01 10 01.17 +04 45 49.2   691 – Steward Observatory, Kitt Peak-Spacewatch MPS 229949
2002 11 14.15215 02 45 22.13 +12 07 22.4 21.1 V 291 – LPL/Spacewatch II MPS 229949
2002 11 14.15612 02 45 21.91 +12 07 22.4 20.4 V 291 – LPL/Spacewatch II MPS 229949
2002 11 14.15994 02 45 21.73 +12 07 20.8 20.8 V 291 – LPL/Spacewatch II MPS 229949
2004 01 30.40888 09 55 10.46 +11 39 09.0 21.4 V 691 – Steward Observatory, Kitt Peak-Spacewatch MPS 229949
2004 01 30.43641 09 55 09.19 +11 39 16.5 21.0 V 691 – Steward Observatory, Kitt Peak-Spacewatch MPS 229949
2004 01 30.46312 09 55 07.96 +11 39 23.9 20.8 V 691 – Steward Observatory, Kitt Peak-Spacewatch MPS 229949
2005 05 10.33575 15 46 20.06 -16 00 36.2 20.2 R G96 – Mt. Lemmon Survey MPS 229949
2005 05 10.34238 15 46 19.74 -16 00 34.9 20.1 R G96 – Mt. Lemmon Survey MPS 229949
2005 05 10.34901 15 46 19.39 -16 00 33.7 19.8 R G96 – Mt. Lemmon Survey MPS 229949
2005 05 10.35564 15 46 19.05 -16 00 32.5 20.0 R G96 – Mt. Lemmon Survey MPS 229949
2007 10 20.37694 04 12 47.01 +17 32 27.1 20.0 V G96 – Mt. Lemmon Survey MPS 229949
2007 10 20.38355 04 12 46.83 +17 32 26.4 19.8 V G96 – Mt. Lemmon Survey MPS 229949
2007 10 20.39021 04 12 46.65 +17 32 25.5 20.0 V G96 – Mt. Lemmon Survey MPS 229949
2007 10 20.39677 04 12 46.47 +17 32 24.4 20.1 V G96 – Mt. Lemmon Survey MPS 229949
2007 11 04.32709 04 03 55.74 +16 54 12.7   691 – Steward Observatory, Kitt Peak-Spacewatch MPS 227126
2007 11 04.34249 04 03 55.08 +16 54 09.0   704 – Lincoln Laboratory ETS, New Mexico MPS 407610
2007 11 04.34473 04 03 54.93 +16 54 09.9   691 – Steward Observatory, Kitt Peak-Spacewatch MPS 227126
2007 11 04.36238 04 03 54.12 +16 54 06.7   691 – Steward Observatory, Kitt Peak-Spacewatch MPS 227126
2007 11 04.36661 04 03 53.90 +16 54 05.3   704 – Lincoln Laboratory ETS, New Mexico MPS 407611
2007 11 08.21620 04 00 54.70 +16 42 54.1   691 – Steward Observatory, Kitt Peak-Spacewatch MPS 227126
2007 11 08.23387 04 00 53.82 +16 42 50.8   691 – Steward Observatory, Kitt Peak-Spacewatch MPS 227126
2007 11 08.25154 04 00 52.93 +16 42 47.9   691 – Steward Observatory, Kitt Peak-Spacewatch MPS 227126
2007 11 19.19410 03 51 27.03 +16 09 57.8   691 – Steward Observatory, Kitt Peak-Spacewatch MPS 233476
2007 11 19.21171 03 51 26.05 +16 09 55.0   691 – Steward Observatory, Kitt Peak-Spacewatch MPS 233476
2007 11 19.22934 03 51 25.09 +16 09 51.8   691 – Steward Observatory, Kitt Peak-Spacewatch MPS 233476
2009 02 04.46180 10 57 02.21 +06 36 15.7   691 – Steward Observatory, Kitt Peak-Spacewatch MPS 272740
2009 02 04.47990 10 57 01.54 +06 36 20.4   691 – Steward Observatory, Kitt Peak-Spacewatch MPS 272740
2009 02 04.49799 10 57 00.90 +06 36 25.4   691 – Steward Observatory, Kitt Peak-Spacewatch MPS 272740
2009 02 18.97596 10 47 06.07 +07 50 13.7 20.0 V J75 – OAM Observatory, La Sagra MPS 279675
2009 02 18.98931 10 47 05.33 +07 50 19.5 19.4 V J75 – OAM Observatory, La Sagra MPS 279675
2009 02 19.00277 10 47 04.76 +07 50 23.2 20.4 V J75 – OAM Observatory, La Sagra MPS 279675
2009 02 22.29256 10 44 29.79 +08 09 03.9 19.8 V G96 – Mt. Lemmon Survey MPS 277631
2009 02 22.29668 10 44 29.61 +08 09 05.4 20.3 V G96 – Mt. Lemmon Survey MPS 277631
2009 02 22.30086 10 44 29.40 +08 09 06.5 19.8 V G96 – Mt. Lemmon Survey MPS 277631
2009 02 22.30498 10 44 29.22 +08 09 08.0 20.1 V G96 – Mt. Lemmon Survey MPS 277631
2009 02 22.33664 10 44 27.77 +08 09 19.5 20.3   704 – Lincoln Laboratory ETS, New Mexico MPS 277631
2009 02 22.36127 10 44 26.44 +08 09 27.5 20.5   704 – Lincoln Laboratory ETS, New Mexico MPS 277631
2009 02 22.37281 10 44 25.84 +08 09 32.1 20.8   704 – Lincoln Laboratory ETS, New Mexico MPS 277631
2009 02 27.33654 10 40 26.50 +08 38 04.6 20.4 V G96 – Mt. Lemmon Survey MPS 278744
2009 02 27.34066 10 40 26.29 +08 38 06.4 20.3 V G96 – Mt. Lemmon Survey MPS 278744
2009 02 27.34479 10 40 26.07 +08 38 07.7 20.2 V G96 – Mt. Lemmon Survey MPS 278744
2009 02 27.34894 10 40 25.86 +08 38 09.3 20.1 V G96 – Mt. Lemmon Survey MPS 278744
2009 03 22.841283 10 23 25.84 +10 37 50.2 20.3 C 493 – Calar Alto MPS 281343
2009 03 22.864752 10 23 25.03 +10 37 55.9 20.6 C 493 – Calar Alto MPS 281343
2009 03 22.887967 10 23 24.21 +10 38 01.6 20.6 C 493 – Calar Alto MPS 281343
2009 03 23.22254 10 23 12.91 +10 39 21.3 20.8 V G96 – Mt. Lemmon Survey MPS 281343
2009 03 23.22704 10 23 12.76 +10 39 22.8 20.7 V G96 – Mt. Lemmon Survey MPS 281343
2009 03 23.23163 10 23 12.58 +10 39 23.8 20.5 V G96 – Mt. Lemmon Survey MPS 281343
2009 03 23.23624 10 23 12.40 +10 39 25.3 20.5 V G96 – Mt. Lemmon Survey MPS 281343
2010 05 19.515301 16 42 59.836 -18 24 26.48 21.07 r F51 – Pan-STARRS 1, Haleakala MPS 337403
2010 05 19.526100 16 42 59.261 -18 24 24.31 20.79 r F51 – Pan-STARRS 1, Haleakala MPS 337403
2010 07 04.23299 16 08 48.87 -17 23 59.1 21.3 V G96 – Mt. Lemmon Survey MPS 337403
2010 07 04.24016 16 08 48.66 -17 23 59.1 21.1 V G96 – Mt. Lemmon Survey MPS 337403
2010 07 04.24734 16 08 48.51 -17 23 58.9 20.6 V G96 – Mt. Lemmon Survey MPS 337403
2010 07 04.25447 16 08 48.26 -17 23 58.8 20.7 V G96 – Mt. Lemmon Survey MPS 337403
2011 08 28.44753 22 37 40.273 -08 46 22.13 20.6 g F51 – Pan-STARRS 1, Haleakala MPS 389181
2011 08 28.45799 22 37 39.796 -08 46 25.27 20.6 g F51 – Pan-STARRS 1, Haleakala MPS 389181
2011 08 28.46948 22 37 39.228 -08 46 29.16 20.0 r F51 – Pan-STARRS 1, Haleakala MPS 389181
2011 08 28.47939 22 37 38.758 -08 46 32.23 20.2 r F51 – Pan-STARRS 1, Haleakala MPS 389181
2011 09 24.23332 22 18 39.74 -10 58 53.9 20.6 V G96 – Mt. Lemmon Survey MPS 392720
2011 09 24.23622 22 18 39.60 -10 58 54.9 20.9 V G96 – Mt. Lemmon Survey MPS 392720
2011 09 24.23853 22 18 39.56 -10 58 55.3 21.2 V G96 – Mt. Lemmon Survey MPS 392720
2011 09 24.24146 22 18 39.45 -10 58 54.9 20.3 V G96 – Mt. Lemmon Survey MPS 392720
2011 09 24.24381 22 18 39.38 -10 58 56.7 20.5 V G96 – Mt. Lemmon Survey MPS 392720
2011 09 24.24670 22 18 39.24 -10 58 56.6 20.3 V G96 – Mt. Lemmon Survey MPS 392720
2011 09 24.24904 22 18 39.13 -10 58 57.5 20.4 V G96 – Mt. Lemmon Survey MPS 392720
2011 09 24.25196 22 18 39.06 -10 58 57.6 20.9 V G96 – Mt. Lemmon Survey MPS 392720
2012 11 13.39707 05 10 58.08 +19 09 58.7 20.5 V G96 – Mt. Lemmon Survey MPS 443282
2012 11 13.40332 05 10 57.79 +19 09 58.5 20.9 V G96 – Mt. Lemmon Survey MPS 443282
2012 11 13.40955 05 10 57.54 +19 09 57.6 20.6 V G96 – Mt. Lemmon Survey MPS 443282
2012 11 13.41589 05 10 57.28 +19 09 57.2 20.7 V G96 – Mt. Lemmon Survey MPS 443282
2012 11 25.35626 05 01 36.330 +18 51 48.33 20.2 i F51 – Pan-STARRS 1, Haleakala MPS 444786
2012 11 25.36822 05 01 35.691 +18 51 47.27 20.2 i F51 – Pan-STARRS 1, Haleakala MPS 444786
2012 12 03.26745 04 54 25.52 +18 39 56.5 19.9 V G96 – Mt. Lemmon Survey MPS 445875
2012 12 03.27674 04 54 24.98 +18 39 55.9 20.1 V G96 – Mt. Lemmon Survey MPS 445875
2012 12 03.28609 04 54 24.44 +18 39 55.2 19.8 V G96 – Mt. Lemmon Survey MPS 445875
2012 12 03.29540 04 54 23.90 +18 39 54.4 19.7 V G96 – Mt. Lemmon Survey MPS 445875
2012 12 08.38869 04 49 38.42 +18 32 45.1 19.6 V G96 – Mt. Lemmon Survey MPS 447658
2012 12 08.39389 04 49 38.13 +18 32 44.7 19.5 V G96 – Mt. Lemmon Survey MPS 447658
2012 12 08.39916 04 49 37.84 +18 32 44.2 19.3 V G96 – Mt. Lemmon Survey MPS 447658
2012 12 08.40443 04 49 37.52 +18 32 43.6 19.5 V G96 – Mt. Lemmon Survey MPS 447658
2012 12 21.35752 04 38 12.26 +18 18 08.0 20.3 V G96 – Mt. Lemmon Survey MPS 448484
2012 12 21.36350 04 38 11.97 +18 18 07.9 20.2 V G96 – Mt. Lemmon Survey MPS 448484
2012 12 21.36950 04 38 11.68 +18 18 07.3 20.0 V G96 – Mt. Lemmon Survey MPS 448484
2012 12 21.37558 04 38 11.36 +18 18 07.2 20.0 V G96 – Mt. Lemmon Survey MPS 448484
2013 11 08.50373 11 02 44.79 +05 45 25.5 21.7 V G96 – Mt. Lemmon Survey MPS 488316
2013 11 08.50746 11 02 45.03 +05 45 23.9 21.9 V G96 – Mt. Lemmon Survey MPS 488316
2013 11 08.51119 11 02 45.35 +05 45 22.6 21.9 V G96 – Mt. Lemmon Survey MPS 488316
2013 11 08.51492 11 02 45.60 +05 45 20.4 21.6 V G96 – Mt. Lemmon Survey MPS 488316
